DECAYED
Showing default

SATORO-T2, 60477 (Decayed)

Orbit data source: Space-Track

SATORO-T2, 60477 was a payload satellite owned by Satoro (SG) in LEO that was launched on Fri, 16 Aug 2024 UTC via an FALCON 9 launch vehicle from the Air Force Western Test Range (AFWTR). Payload-class satellites include a variety of spacecraft equipped with specific instruments for various scientific and technological missions. These include communications satellites like Starlink; space stations such as the ISS; scientific satellites like the Hubble; Earth observation satellites from companies like Planet Labs, Umbra, and HawkEye 360; GPS; miniature CubeSats for education and research; and military/defense satellites.

Not visible in the next 10 days
Identifier
60477, 2024-149K
Orbit
Decayed
Country
Flag of SGSG / SING
Related business
Manufacturer
Satoro
Mission
Decayed Commercial Technology
Bus & Motor
CUBESAT 3U, Unknown motor
Mass
4 kg wet, 4 kg dry
Launch date (UTC)
2024-08-16 (2 years ago)
Launch vehicle
FALCON 9
Launch site
Air Force Western Test Range (AFWTR)
Object type
Payload
Rocket body
Debris
Shape & HBR
Box, 0.1 m
Radar Cross Section
0.035 m², Medium (>0.1 m² and < 1m²)

Expand to show TLE details & history
Last TLE update: 3 months ago

TLE from 3 months ago
0 SATORO-T2
1 60477U 24149K   26061.88553982  .13776444  25362-5  33611-3 0  9993
2 60477  97.3523 155.3904 0011875 278.2121  81.7834 16.45214830 86646
Epoch: 2026-03-02T21:15Z
TLE epoch observation values (Epoch: 2026-03-02T21:15:10.640Z)
Latitude
-0.00005°
Longitude
35.92354°
Altitude
154.127 km
Speed
7.814 km/s
True Right ascension
10h 21m 33s
True Declination
0° 00' 00"
Sunlit
Object was in full shadow at epoch
Visualization orbit readout
Latitude
Unknown
Longitude
Unknown
Altitude
Unknown
Speed
Unknown
Apparent Right ascension
Unknown
Apparent Declination
Unknown
Sunlit
N/A
Visualization observer readout
Local Sidereal Time
13:42:08
Azimuth
Unknown
Elevation
Unknown
Doppler factor
Unknown
Orbital elements
Apogee altitude
156.516 km
Perigee altitude
141.015 km
Semi-major axis
6,526.903 km
Eccentricity
0.00119
Inclination
97.3523°
RAAN
155.3904°
Arg. of periapsis
278.2121°
True anomaly
81.91811°
Mean anomaly
81.7834°
Eccentric anomaly
81.85075°
Mean motion
4.11607 °/min
Orbital period
87.46 mins
BSTAR
0.00033611
Loading maneuver chart data...
Computing Atmospheric mass density...
Loading historical data...
Loading historical data...
Loading historical data...
Loading historical data...
Loading historical data...
Loading historical data...
Loading historical data...

Documentation

Showing up to 5 results
|